Starlink 5830

operational
NORAD ID: 57065 Int'l Des: 2023-088 Owner: SPXS Country: US Constellation: starlink
LEOCIRCULAR

关于 Starlink 5830

正在加载描述...

实时位置

正在加载3D地球...

即将过境

高度历史

Altitude vs Time

uPlot chart will show altitude changes over time

两行轨道根数

1 57065U 23088T 25353.84033264 -.00000799 00000-0 -44074-4 0 9992
2 57065 43.0033 181.7352 0000670 247.2406 112.8365 15.02539138137377
Epoch: Dec 19, 2025 • Age: 5 hours

当前状态

高度 562.4 km
速度 7.59 km/s
星下点 41.61°N, 143.63°E
发射日期 Jun 22, 2023
运行时间 2.4 years
类型 internet

技术详情

分类 Payload
质量 305.00 kg
干质量 290.00 kg
总质量 305.00 kg
长度 0.20 m
直径 2.80 m
跨度 9.00 m
形状 Box + pan
制造商 SPXS
平台类型 Starlink
阶段状态 In Orbit
所有者/国家 SPXS/US

大型星座

Loading constellations...